Weather History for Maxwell AFB, AL

Change the Weather History Date:

Wednesday, November 20, 2013

  Actual Average Record
Temperature  
Mean Temperature 54 °F -  
Max Temperature 66 °F 66 °F 76 °F (2007)
Min Temperature 41 °F 45 °F 33 °F (2000)
Degree Days  
Heating Degree Days 12    
Growing Degree Days 4 (Base 50)    
Moisture  
Dew Point 41 °F    
Average Humidity 60    
Maximum Humidity 81    
Minimum Humidity 46    
Precipitation  
Precipitation 0.00 in - - ()
Sea Level Pressure  
Sea Level Pressure 30.19 in    
Wind  
Wind Speed 7 mph (ENE)    
Max Wind Speed 16 mph    
Max Gust Speed 22 mph    
Visibility 10 miles    
Events      
Averages and records for this station are not official NWS values.
T = Trace of Precipitation, MM = Missing Value Source: NWS Daily Summary

Daily Weather History Graph

Daily Weather History Graph

Search for Another Location

Airport:

Trip Planner

Search our weather history database for the weather conditions in past years. The results will help you decide how hot, cold, wet, or windy it might be!

Date:

Astronomy

Nov. 20, 2013 Rise Set
Actual Time 6:19 AM CST 4:42 PM CST
Civil Twilight 5:53 AM CST 5:08 PM CST
Nautical Twilight 5:23 AM CST 5:38 PM CST
Astronomical Twilight 4:54 AM CST 6:07 PM CST
Moon 7:24 PM CST (11/20) 8:44 AM CST (11/20)
Length of Visible Light 11h 15m
Length of Day
10h 22m
Waning Gibbous, 91% of the Moon is Illuminated
Nov 20
Waning Gibbous
Nov 25
Last Quarter
Dec 2
New
Dec 9
First Quarter
Dec 17
Full

Hourly Weather History & Observations

Time (CST) Temp. Windchill Dew Point Humidity Pressure Visibility Wind Dir Wind Speed Gust Speed Precip Events Conditions
12:58 AM 43.9 °F - 37.8 °F 79% 30.12 in 10.0 mi North 2.3 mph - N/A   Clear
1:58 AM 43.3 °F - 37.9 °F 81% 30.12 in 10.0 mi NE 2.3 mph - N/A   Clear
2:58 AM 43.0 °F 40.3 °F 36.9 °F 79% 30.13 in 10.0 mi NE 4.6 mph - N/A   Clear
3:58 AM 43.2 °F 40.5 °F 35.1 °F 73% 30.14 in 10.0 mi NE 4.6 mph - N/A   Clear
4:58 AM 41.2 °F 39.2 °F 34.9 °F 78% 30.15 in 10.0 mi NNE 3.5 mph - N/A   Clear
5:58 AM 41.9 °F 39.0 °F 32.9 °F 70% 30.18 in 10.0 mi NNE 4.6 mph - N/A   Clear
6:58 AM 41.5 °F 38.6 °F 35.2 °F 78% 30.20 in 10.0 mi NNE 4.6 mph - N/A   Clear
7:58 AM 47.5 °F - 34.9 °F 62% 30.22 in 10.0 mi NE 6.9 mph - N/A   Mostly Cloudy
8:58 AM 51.8 °F - 34.3 °F 51% 30.24 in 10.0 mi ENE 10.4 mph 17.3 mph N/A   Partly Cloudy
9:58 AM 56.8 °F - 37.0 °F 48% 30.23 in 10.0 mi ENE 12.7 mph - N/A   Mostly Cloudy
10:58 AM 60.4 °F - 39.6 °F 46% 30.21 in 10.0 mi ENE 10.4 mph - N/A   Scattered Clouds
11:58 AM 63.1 °F - 41.9 °F 46% 30.17 in 5.0 mi ENE 11.5 mph - N/A   Haze
12:01 PM 62.6 °F - 42.8 °F 48% 30.17 in 7.0 mi ENE 11.5 mph - N/A   Clear
12:58 PM 64.9 °F - 43.5 °F 46% 30.15 in 10.0 mi East 10.4 mph - N/A   Clear
1:58 PM 66.0 °F - 45.5 °F 48% 30.14 in 10.0 mi ENE 10.4 mph - N/A   Clear
2:58 PM 64.4 °F - 44.6 °F 49% 30.14 in 10.0 mi East 9.2 mph - N/A   Overcast
3:58 PM 63.3 °F - 43.9 °F 49% 30.16 in 10.0 mi East 10.4 mph - N/A   Overcast
4:58 PM 61.5 °F - 43.2 °F 51% 30.17 in 10.0 mi East 11.5 mph - N/A   Overcast
5:58 PM 61.0 °F - 41.9 °F 49% 30.19 in 10.0 mi East 12.7 mph - N/A   Overcast
6:38 PM 60.8 °F - 42.8 °F 52% 30.19 in 10.0 mi East 13.8 mph 21.9 mph N/A   Overcast
6:58 PM 59.7 °F - 42.8 °F 54% 30.21 in 10.0 mi East 9.2 mph - N/A   Overcast
7:58 PM 58.5 °F - 43.2 °F 57% 30.23 in 10.0 mi East 10.4 mph - N/A   Overcast
8:28 PM 57.2 °F - 42.8 °F 59% 30.22 in 10.0 mi East 12.7 mph - N/A   Mostly Cloudy
8:58 PM 57.7 °F - 43.7 °F 60% 30.24 in 10.0 mi East 16.1 mph 20.7 mph N/A   Overcast
9:53 PM 57.2 °F - 44.6 °F 63% 30.23 in 10.0 mi East 12.7 mph - N/A   Overcast
9:58 PM 57.0 °F - 44.4 °F 63% 30.24 in 10.0 mi East 10.4 mph - N/A   Overcast
10:43 PM 57.2 °F - 44.6 °F 63% 30.24 in 10.0 mi East 8.1 mph - N/A   Overcast
10:48 PM 57.2 °F - 44.6 °F 63% 30.24 in 10.0 mi East 9.2 mph - N/A   Overcast
10:58 PM 56.1 °F - 43.9 °F 64% 30.25 in 10.0 mi East 9.2 mph - N/A   Overcast
11:03 PM 55.4 °F - 42.8 °F 63% 30.24 in 10.0 mi East 8.1 mph - N/A   Overcast
11:58 PM 56.1 °F - 43.0 °F 61% 30.25 in 10.0 mi East 8.1 mph - N/A   Overcast